Location: Lugrin
(46.4033°N, 6.6674°E)
Time: 11:01:41
(UTC+00:00)

Exosat Rocket - Pass Details

Date: 18 September 2020
Orbit: 761 x 2514 km, 72.3° (Epoch: 24 October)

Event Time Altitude Azimuth Distance (km) Brightness Sun altitude
Rises 18:57:58 0° 174° (S) 3,760 6.8 -14.3°
Reaches altitude 10° 19:01:02 10° 164° (SSE) 2,620 5.9 -14.8°
Maximum altitude 19:05:54 29° 105° (ESE) 1,440 4.3 -15.6°
Drops below altitude 10° 19:10:14 10° 45° (NE) 2,308 5.7 -16.3°
Sets 19:12:45 0° 34° (NE) 3,236 6.6 -16.7°
